Powrót do katalogu

STARLINK-34632

AktywnyŁącznośćVLEO
NORAD 64792·PAYLOAD·🇺🇸 United States

Wystrzelony Jul 16, 2025 z Vandenberg Space Force Base

Loading…

Następne Przeloty (najbliższe 24 godziny)

TLE

ŚwieżeSource: CelesTrak SupGP

Epoka: Sep 14, 2026, 20:40 UTC

1 64792C 25150C   26257.86159722 -.00010751  00000+0 -90089-3 0  2574
2 64792  70.0027  17.4283 0003094 269.6287   9.3225 14.98338012    18

Śledź STARLINK-34632 w czasie rzeczywistym z AllMySat

Download on the App Store